| time (UTC) | temp C | wind direction | speed KPH | gust KPH | rain 1hr cm | rain 24hr cm | rain mn cm | humidity % | barometer mb |
| 20260508071535 | 21 | 70 | 4.8 | 9.7 | 0.00 | 0.00 | 0.00 | 82 | 1012.2 |
| 20260508070005 | 21 | 63 | 4.8 | 9.7 | 0.00 | 0.00 | 0.00 | 81 | 1012.2 |
| 20260508064543 | 21 | 51 | 3.2 | 9.7 | 0.00 | 0.00 | 0.00 | 81 | 1012.2 |
| 20260508063015 | 21 | 58 | 3.2 | 11.3 | 0.00 | 0.00 | 0.00 | 80 | 1012.4 |
| 20260508061604 | 21 | 24 | 4.8 | 9.7 | 0.00 | 0.00 | 0.00 | 80 | 1012.6 |
| 20260508060035 | 21 | 91 | 6.4 | 12.9 | 0.00 | 0.00 | 0.00 | 1012.7 | |
| 20260508054610 | 21 | 72 | 6.4 | 16.1 | 0.00 | 0.00 | 0.00 | 79 | 1012.5 |
| 20260508053101 | 21 | 44 | 4.8 | 11.3 | 0.00 | 0.00 | 0.00 | 79 | 1012.5 |
| 20260508051513 | 22 | 80 | 3.2 | 12.9 | 0.00 | 0.00 | 0.00 | 78 | 1012.4 |
| 20260508050059 | 22 | 13 | 6.4 | 14.5 | 0.00 | 0.00 | 0.00 | 78 | 1012.2 |
| 20260508044530 | 22 | 77 | 6.4 | 14.5 | 0.00 | 0.00 | 0.00 | 77 | 1012.4 |
| 20260508043111 | 22 | 64 | 8.0 | 14.5 | 0.00 | 0.00 | 0.00 | 76 | 1012.5 |
| 20260508041614 | 22 | 87 | 6.4 | 19.3 | 0.00 | 0.00 | 0.00 | 77 | 1012.5 |
| 20260508040027 | 22 | 87 | 6.4 | 20.9 | 0.00 | 0.00 | 0.00 | 78 | 1012.3 |
| 20260508034612 | 22 | 97 | 4.8 | 16.1 | 0.00 | 0.00 | 0.00 | 77 | 1012.7 |
| 20260508033035 | 23 | 39 | 6.4 | 17.7 | 0.00 | 0.00 | 0.00 | 76 | 1013.1 |
| 20260508031505 | 23 | 10 | 3.2 | 9.7 | 0.00 | 0.00 | 0.00 | 75 | 1013.2 |
| 20260508030049 | 23 | 15 | 4.8 | 14.5 | 0.00 | 0.00 | 0.00 | 74 | 1013.1 |
| 20260508024530 | 23 | 79 | 6.4 | 14.5 | 0.00 | 0.00 | 0.00 | 73 | 1012.9 |
| 20260508023109 | 23 | 51 | 8.0 | 14.5 | 0.00 | 0.00 | 0.00 | 72 | 1013.0 |
| 20260508021538 | 23 | 41 | 3.2 | 9.7 | 0.00 | 0.00 | 0.00 | 72 | 1013.0 |
| 20260508020005 | 23 | 66 | 6.4 | 12.9 | 0.00 | 0.00 | 0.00 | 72 | 1012.7 |
| 20260508014547 | 24 | 96 | 6.4 | 11.3 | 0.00 | 0.00 | 0.00 | 72 | 1012.7 |
| 20260508013016 | 24 | 60 | 4.8 | 11.3 | 0.00 | 0.00 | 0.00 | 73 | 1012.7 |
| 20260508011601 | 24 | 65 | 3.2 | 14.5 | 0.00 | 0.00 | 0.00 | 74 | 1012.9 |
| 20260508010030 | 24 | 12 | 3.2 | 11.3 | 0.00 | 0.00 | 0.00 | 75 | 1013.0 |
| 20260508004501 | 24 | 2 | 6.4 | 14.5 | 0.00 | 0.00 | 0.00 | 75 | 1012.6 |
| 20260508003046 | 24 | 42 | 3.2 | 14.5 | 0.00 | 0.00 | 0.00 | 75 | 1012.6 |
| 20260508001513 | 25 | 46 | 8.0 | 16.1 | 0.00 | 0.00 | 0.00 | 75 | 1012.6 |
| 20260508000057 | 25 | 74 | 3.2 | 9.7 | 0.00 | 0.00 | 0.00 | 75 | 1012.8 |
| 20260507234529 | 25 | 354 | 4.8 | 17.7 | 0.00 | 0.00 | 0.00 | 75 | 1012.6 |
| 20260507233115 | 25 | 11 | 8.0 | 12.9 | 0.00 | 0.00 | 0.00 | 74 | 1012.5 |
| 20260507231549 | 25 | 32 | 6.4 | 14.5 | 0.00 | 0.00 | 0.00 | 75 | 1012.6 |
| 20260507230022 | 25 | 14 | 8.0 | 19.3 | 0.00 | 0.00 | 0.00 | 73 | 1012.3 |
| 20260507224601 | 25 | 359 | 8.0 | 16.1 | 0.00 | 0.00 | 0.00 | 73 | 1012.3 |
| 20260507223034 | 25 | 37 | 6.4 | 14.5 | 0.00 | 0.00 | 0.00 | 73 | 1012.2 |
| 20260507221503 | 25 | 49 | 4.8 | 12.9 | 0.00 | 0.00 | 0.00 | 74 | 1012.2 |
| 20260507220043 | 25 | 96 | 4.8 | 14.5 | 0.00 | 0.00 | 0.00 | 74 | 1012.4 |
| 20260507214513 | 25 | 1 | 6.4 | 16.1 | 0.00 | 0.00 | 0.00 | 73 | 1012.4 |
| 20260507213103 | 25 | 77 | 9.7 | 20.9 | 0.00 | 0.00 | 0.00 | 74 | 1012.4 |
| 20260507211527 | 25 | 69 | 8.0 | 19.3 | 0.00 | 0.00 | 0.00 | 74 | 1012.7 |
| 20260507210111 | 25 | 52 | 8.0 | 17.7 | 0.00 | 0.00 | 0.00 | 73 | 1012.7 |
| 20260507204527 | 25 | 63 | 4.8 | 16.1 | 0.00 | 0.00 | 0.00 | 73 | 1012.9 |
| 20260507203104 | 25 | 47 | 8.0 | 14.5 | 0.00 | 0.00 | 0.00 | 74 | 1013.3 |
| 20260507201539 | 25 | 352 | 8.0 | 16.1 | 0.00 | 0.00 | 0.00 | 74 | 1013.1 |
| 20260507200012 | 24 | 19 | 9.7 | 19.3 | 0.00 | 0.00 | 0.00 | 74 | 1013.2 |
| 20260507194611 | 23 | 44 | 6.4 | 24.1 | 0.00 | 0.00 | 0.00 | 75 | 1013.5 |
| 20260507193015 | 23 | 1 | 9.7 | 20.9 | 0.00 | 0.00 | 0.00 | 75 | 1013.8 |
| 20260507191551 | 23 | 42 | 12.9 | 22.5 | 0.00 | 0.00 | 0.00 | 75 | 1014.0 |
| 20260507190014 | 23 | 338 | 8.0 | 19.3 | 0.00 | 0.00 | 0.00 | 75 | 1014.1 |
| 20260507184555 | 22 | 348 | 9.7 | 20.9 | 0.00 | 0.00 | 0.00 | 77 | 1014.2 |
| 20260507183034 | 22 | 11 | 11.3 | 20.9 | 0.00 | 0.00 | 0.00 | 76 | 1014.2 |
| 20260507181616 | 22 | 359 | 4.8 | 14.5 | 0.00 | 0.00 | 0.00 | 77 | 1014.5 |
| 20260507180037 | 21 | 37 | 8.0 | 16.1 | 0.00 | 0.00 | 0.00 | 78 | 1014.7 |
| 20260507174504 | 21 | 53 | 8.0 | 17.7 | 0.00 | 0.00 | 0.00 | 78 | 1014.8 |
| 20260507173119 | 21 | 30 | 6.4 | 17.7 | 0.00 | 0.00 | 0.00 | 81 | 1015.1 |
| 20260507171538 | 20 | 48 | 8.0 | 16.1 | 0.00 | 0.00 | 0.00 | 81 | 1015.2 |
| 20260507170117 | 20 | 359 | 3.2 | 16.1 | 0.00 | 0.00 | 0.00 | 82 | 1015.3 |
| 20260507164538 | 20 | 12 | 6.4 | 17.7 | 0.00 | 0.00 | 0.00 | 82 | 1015.3 |
| 20260507163113 | 19 | 1 | 4.8 | 14.5 | 0.00 | 0.00 | 0.00 | 84 | 1015.0 |
| 20260507161555 | 18 | 21 | 11.3 | 19.3 | 0.00 | 0.00 | 0.00 | 85 | 1014.8 |
| 20260507160005 | 17 | 350 | 8.0 | 16.1 | 0.00 | 0.00 | 0.00 | 85 | 1015.1 |
| 20260507154545 | 17 | 37 | 8.0 | 19.3 | 0.00 | 0.00 | 0.00 | 86 | 1015.3 |
| 20260507153012 | 17 | 31 | 6.4 | 19.3 | 0.00 | 0.00 | 0.00 | 86 | 1015.3 |
| 20260507151559 | 17 | 345 | 8.0 | 16.1 | 0.00 | 0.00 | 0.00 | 86 | 1015.3 |
| 20260507150024 | 17 | 343 | 6.4 | 17.7 | 0.00 | 0.00 | 0.00 | 86 | 1015.4 |
| 20260507144604 | 17 | 38 | 6.4 | 24.1 | 0.00 | 0.00 | 0.00 | 86 | 1014.9 |
| 20260507143031 | 17 | 28 | 6.4 | 27.4 | 0.00 | 0.00 | 0.00 | 87 | 1014.8 |
| 20260507141636 | 17 | 34 | 9.7 | 25.7 | 0.00 | 0.00 | 0.00 | 87 | 1014.8 |
| 20260507140041 | 17 | 32 | 11.3 | 24.1 | 0.00 | 0.00 | 0.00 | 87 | 1014.8 |
| 20260507134515 | 17 | 13 | 9.7 | 19.3 | 0.00 | 0.00 | 0.00 | 87 | 1015.0 |
| 20260507133049 | 17 | 298 | 6.4 | 20.9 | 0.00 | 0.00 | 0.00 | 87 | 1015.0 |
| 20260507131530 | 17 | 335 | 12.9 | 25.7 | 0.00 | 0.00 | 0.00 | 87 | 1015.1 |
| 20260507130106 | 18 | 343 | 11.3 | 20.9 | 0.00 | 0.00 | 0.00 | 87 | 1015.1 |
| 20260507124533 | 18 | 51 | 4.8 | 19.3 | 0.00 | 0.00 | 0.00 | 87 | 1014.5 |
| 20260507123004 | 18 | 318 | 4.8 | 16.1 | 0.00 | 0.00 | 0.00 | 87 | 1014.0 |
| 20260507121545 | 18 | 356 | 6.4 | 16.1 | 0.00 | 0.00 | 0.00 | 87 | 1014.1 |
| 20260507120034 | 18 | 321 | 4.8 | 12.9 | 0.00 | 0.00 | 0.00 | 88 | 1013.9 |
| 20260507114615 | 18 | 73 | 4.8 | 12.9 | 0.00 | 0.00 | 0.00 | 89 | 1013.4 |
| 20260507113038 | 18 | 35 | 8.0 | 14.5 | 0.00 | 0.00 | 0.00 | 89 | 1012.9 |
| 20260507111603 | 18 | 342 | 4.8 | 16.1 | 0.00 | 0.00 | 0.00 | 89 | 1012.9 |
| 20260507110037 | 18 | 48 | 4.8 | 16.1 | 0.00 | 0.00 | 0.00 | 89 | 1012.8 |
| 20260507104515 | 19 | 1 | 4.8 | 14.5 | 0.00 | 0.00 | 0.00 | 88 | 1012.9 |
| 20260507103056 | 19 | 38 | 4.8 | 16.1 | 0.00 | 0.00 | 0.00 | 88 | 1012.7 |
| 20260507101525 | 19 | 43 | 4.8 | 20.9 | 0.00 | 0.00 | 0.00 | 88 | 1012.5 |
| 20260507100114 | 19 | 36 | 4.8 | 22.5 | 0.00 | 0.00 | 0.00 | 88 | 1012.3 |
| 20260507094531 | 19 | 45 | 11.3 | 20.9 | 0.00 | 0.00 | 0.00 | 87 | 1012.2 |
| 20260507093112 | 20 | 25 | 6.4 | 12.9 | 0.00 | 0.00 | 0.00 | 87 | 1012.0 |
| 20260507091553 | 20 | 344 | 6.4 | 14.5 | 0.00 | 0.00 | 0.00 | 87 | 1012.0 |
| 20260507090027 | 20 | 359 | 9.7 | 17.7 | 0.00 | 0.00 | 0.00 | 86 | 1012.0 |
| 20260507084606 | 20 | 334 | 8.0 | 16.1 | 0.00 | 0.00 | 0.00 | 86 | 1012.3 |
| 20260507083038 | 20 | 329 | 4.8 | 17.7 | 0.00 | 0.00 | 0.00 | 86 | 1011.9 |
| 20260507081509 | 20 | 359 | 1.6 | 16.1 | 0.00 | 0.00 | 0.00 | 86 | 1011.9 |
| 20260507080053 | 20 | 1 | 4.8 | 14.5 | 0.00 | 0.00 | 0.00 | 85 | 1012.1 |
| 20260507074529 | 20 | 25 | 4.8 | 14.5 | 0.00 | 0.00 | 0.00 | 85 | 1012.2 |
| 20260507073137 | 20 | 23 | 6.4 | 22.5 | 0.00 | 0.00 | 0.00 | 85 | 1012.1 |